Regional Weather Roundup
Issued by NWS New Orleans/Baton Rouge, LA

Home | Current Version | Previous Version | Graphics & Text | Print | Product List | Glossary On
Versions: 1 2 3 4 5 6 7 8 9 10 11 12 13 14 15 16 17 18 19 20 21 22 23 24 25 26 27 28 29 30 31 32 33 34 35 36 37 38 39 40 41 42 43 44 45 46 47 48 49 50
229
ASUS44 KLIX 020510
RWRLIX
NEW ORLEANS REGIONAL WEATHER ROUNDUP
NATIONAL WEATHER SERVICE NEW ORLEANS LA
1100 PM CST SUN MAR 01 2015

NOTE: "FAIR" INDICATES FEW OR NO CLOUDS BELOW 12,000 FEET WITH NO
      SIGNIFICANT WEATHER AND/OR OBSTRUCTIONS TO VISIBILITY.
      SKY/WX - SKY CONDITION AND SIGNIFICANT WEATHER.
      TMP - AIR TEMPERATURE.     DP    - DEWPOINT TEMPERATURE.
      RH  - RELATIVE HUMIDITY.   PRES  - PRESSURE.
      HI  - HEAT INDEX.          WCI   - WIND CHILL INDEX.

*  THESE STATIONS ARE NOT NWS OR FAA STATIONS AND ARE NOT UNDER
   NWS QUALITY CONTROL.

LAZ038-040-048-061>063-065>067-069-020600-
SOUTHEAST LOUISIANA

CITY           SKY/WX    TMP DP  RH WIND       PRES   REMARKS
N.O. AUDUBON     N/A     58  58 100 MISG        N/A
N.O. INTL ARPT CLOUDY    58  57  97 E13G22    30.29S FOG
N.O. LAKEFRONT FOG       58  56  93 E16       30.31S VSB 1
SLIDELL        LGT RAIN  61  60  97 NE7       30.32S
BATON ROUGE    HVY RAIN  62  61  96 E9        30.29R FOG
BOOTHVILLE     FOG       61  61 100 E6        30.30S VSB 1/4
BELLE CHASSE   LGT RAIN  59  56  89 NE9       30.29F FOG
BOGALUSA*      RAIN      61  58  88 E6        30.32F
GALLIANO*      FOG       58  58  98 E3        30.28F VSB 1/4
NEW ROADS*     CLOUDY    63  62  97 E7        30.28S
GONZALES*      LGT RAIN  61  61 100 E3        30.29F
HAMMOND*       LGT RAIN  61  59  94 E7        30.31F
HOUMA*         CLOUDY    63  63  98 NE5       30.27S FOG
PORT FOURCHON* FOG       64  64 100 E6        30.31R VSB 1/4

$$

MSZ070-080>082-020600-
SOUTHERN MISSISSIPPI

CITY           SKY/WX    TMP DP  RH WIND       PRES   REMARKS
MCCOMB         LGT RAIN  62  60  93 CALM      30.30R FOG
GULFPORT       LGT RAIN  59  58  96 NE9       30.34S FOG
BILOXI         LGT RAIN  59  59 100 E8        30.34S FOG
PASCAGOULA     CLOUDY    57  57 100 NE7       30.36R FOG

$$

COASTAL OBSERVATIONS
LAKE AND NEARSHORE STATIONS

STATION/POSITION TIME  TEMP    WIND        PRES    WAVE
                       AIR SEA DIR/SP/G            HT/PER
                 (UTC) (F)     (DEG/KT/KT) (MB)    (FT/S)
PASCAGOULA       0500   58      40/ 10/ 13 1027.3
WAVELAND YACHT   0500   58 53   60/ 10/ 11 1026.9
GRAND ISLE       0500   62 59  100/  6/  9 1025.7
SOUTHWEST PASS   0500   63 47  110/ 14/ 15 1025.7
NEW CANAL        0500   57      80/ 11/ 15 1026.3
SHELL BEACH      0500   57 55   80/ 15/ 16 1025.8

OFFSHORE STATIONS

STATION/POSITION TIME  TEMP    WIND        PRES    WAVE
                       AIR SEA DIR/SP/G            HT/PER
                 (UTC) (F)     (DEG/KT/KT) (MB)    (FT/S)
64 S DAUPHIN ISL 0408   69 71  110/ 14/ 16 1026.5    4/ 7

$$




USA.gov is the U.S. government's official web portal to all federal, state and local government web resources and services.